Tracking 19827 objects as of 22-Aug-2019
HD Live streaming from Space Station
objects crossing your sky now

FENGYUN 1C DEB

Track FENGYUN 1C DEB now!
10-day predictions


NORAD ID: 30357
Int'l Code: 1999-025ABU
Perigee: 851.0 km
Apogee: 921.9 km
Inclination: 99.1 °
Period: 102.5 minutes
Semi major axis: 7257 km
RCS: 0.042 m2 (small)
Launch date: May 10, 1999
Source: People's Republic of China (PRC)
Launch site: Taiyaun Space Center, China (TSC)

Note: This is SATELLITE DEBRIS
aabbcc
Your satellite tracking list
Your tracking list is empty




NASA's NSSDC Master Catalog

Two Line Element Set (TLE):
1 30357U 99025ABU 19233.64518447 -.00000211  00000-0 -10321-3 0  9996
2 30357  99.0857 262.9242 0048821 277.4877 201.9880 14.04199834644566
Source of the keplerian elements: AFSPC